Wind_Speed
10 10 11 12 12 12 12 12 13 13 13 14 14 13 13 13 12 12 12 12 12 12 13 13 14 14 14 14 14 14 14 14 15 15 15 14 13 14 14 14 14 14 14
10 10 10 11 12 12 13 13 13 13 13 14 14 14 14 14 14 13 13 13 13 13 13 14 14 14 14 14 14 13 13 14 14 15 14 13 14 14 14 15 15 15 15
10 11 11 11 12 13 13 13 14 14 14 14 15 15 15 15 15 14 14 14 14 14 14 14 14 15 15 14 14 14 13 13 13 14 13 14 14 15 15 15 15 16 16
11 12 12 12 13 13 14 14 14 15 15 15 15 15 16 16 15 15 15 15 15 15 15 15 15 15 15 15 15 14 14 14 14 14 13 14 14 15 15 15 16 17 17
13 14 14 14 14 14 15 15 16 16 16 16 16 16 16 17 16 15 15 15 15 15 16 16 16 15 15 15 15 15 15 15 14 14 14 15 15 15 15 15 16 16 16
15 15 15 15 16 16 17 17 17 17 18 18 18 18 18 18 17 17 16 17 17 17 16 15 15 15 15 15 15 15 15 15 15 14 15 15 16 16 16 17 17 17 17
17 17 17 17 18 18 19 18 18 18 19 19 19 19 18 18 18 18 18 18 18 17 16 15 15 14 14 14 15 14 14 15 15 16 16 16 16 17 17 17 18 18 19
20 20 20 20 20 20 20 20 20 20 20 21 20 20 20 20 20 19 19 19 19 18 16 15 15 15 14 14 15 15 16 16 17 17 17 17 18 18 18 19 19 19 20
23 23 23 23 22 22 22 22 21 21 22 23 22 22 22 23 22 21 20 20 19 17 16 16 16 16 15 16 16 16 17 18 18 18 18 18 19 19 20 20 19 20 20
26 26 26 25 25 24 23 24 24 24 24 24 24 24 24 24 22 22 21 20 20 18 18 17 16 17 17 18 18 18 18 18 19 19 19 20 20 20 20 20 21 21 22
29 28 28 28 27 27 26 25 26 26 25 26 26 26 25 24 24 24 23 22 21 20 19 18 18 18 19 19 20 20 20 20 20 20 20 21 21 21 21 21 22 23 23
31 30 29 29 29 28 28 28 28 28 28 27 27 27 27 26 25 25 25 24 23 22 22 21 20 20 20 21 21 22 22 22 22 22 22 22 21 21 22 22 23 23 24
32 31 31 30 30 30 30 30 29 29 29 29 29 29 28 29 28 27 26 26 25 25 24 23 23 23 23 23 23 23 23 24 23 23 22 22 22 22 23 23 24 24 25
32 32 32 32 32 31 30 30 30 30 30 30 30 30 30 30 29 28 28 28 27 26 25 25 25 26 26 26 25 25 25 25 24 24 23 23 23 24 24 25 25 26 25
33 33 33 33 31 31 31 32 32 32 31 31 32 31 31 30 30 29 29 28 28 28 27 27 27 27 28 27 27 27 26 26 25 25 25 25 26 25 26 26 26 27 26
33 33 32 32 32 32 32 32 32 33 33 33 33 32 32 31 32 31 30 30 30 29 29 28 28 29 29 29 28 27 27 27 27 27 27 27 27 27 27 27 27 27 27
33 32 31 32 32 32 32 32 32 32 32 33 33 33 33 33 33 32 31 31 31 30 30 30 30 30 30 29 29 28 28 29 29 29 29 28 28 28 29 28 28 28 27
33 32 33 33 33 33 33 33 33 33 32 32 33 33 33 33 33 32 32 32 32 32 31 31 31 30 31 30 30 30 30 30 30 30 30 30 30 30 30 30 29 29 29
34 34 34 34 34 33 33 34 34 34 33 33 33 33 33 33 33 33 32 32 33 32 32 32 32 32 32 32 32 31 31 31 30 31 31 31 31 31 30 30 30 30 30
35 34 34 34 33 33 33 34 34 34 33 33 33 34 34 34 33 33 33 33 33 32 31 31 32 33 32 32 31 32 32 31 31 30 30 30 30 30 30 31 31 31 30
35 35 34 34 34 34 34 34 35 35 34 34 34 34 34 34 33 33 33 33 33 32 32 32 32 32 31 31 31 32 31 30 30 29 29 30 30 31 31 31 31 32 31
35 35 36 35 34 33 34 34 35 35 34 34 34 35 34 34 33 33 33 34 34 33 33 33 33 32 31 31 31 30 30 31 31 31 31 31 32 32 32 32 32 32 32
34 35 34 33 32 33 33 33 33 33 34 34 35 35 34 33 33 33 34 34 34 33 32 33 33 33 33 32 32 32 32 31 31 32 32 32 33 33 33 33 33 33 33
32 33 33 33 32 32 33 33 33 33 33 34 34 34 33 33 33 33 34 33 33 33 33 33 33 33 32 32 32 32 32 33 33 33 33 33 33 33 33 33 33 33 33
30 30 31 31 31 32 32 32 32 32 32 33 34 34 33 33 33 33 32 32 32 33 32 32 32 32 32 32 32 31 32 32 33 33 33 34 34 34 34 34 34 34 34
28 29 29 29 30 30 31 31 32 32 32 32 33 33 32 32 31 31 31 32 32 32 31 31 32 32 32 32 31 31 32 32 32 33 33 34 34 34 34 34 34 34 35
Wind_Direction
344 349 355 357 358 357 353 351 348 348 350 351 350 346 343 339 333 326 319 315 312 308 304 302 300 300 299 298 297 296 296 293 291 291 290 287 287 285 284 285 287 286 288
329 336 342 345 345 344 344 343 342 343 342 343 343 343 341 338 332 325 319 314 310 306 304 302 299 298 299 301 300 298 297 295 293 290 289 287 285 283 283 284 284 285 286
315 319 325 329 331 332 334 335 335 335 336 337 337 338 336 334 332 328 323 317 312 308 305 302 299 297 297 300 300 299 298 297 295 292 291 289 287 286 286 285 286 287 287
308 310 310 313 318 322 324 325 326 327 327 328 330 331 329 328 328 325 321 318 315 311 309 305 301 297 296 297 297 296 296 297 295 291 289 290 291 292 290 288 287 287 290
299 302 304 305 309 313 315 316 317 320 320 321 323 323 324 325 325 324 322 320 316 311 309 305 301 298 296 295 296 295 295 295 292 291 290 291 291 292 292 292 292 291 290
294 296 299 301 302 304 306 308 310 312 314 317 317 318 319 320 320 320 320 321 319 315 312 309 302 298 297 297 296 294 294 295 293 293 292 292 290 292 291 291 291 291 290
291 291 293 295 296 296 299 302 304 305 307 310 311 313 312 314 318 319 320 319 319 318 316 313 311 307 304 303 300 299 298 296 294 293 292 292 292 292 291 291 291 290 290
286 288 290 292 296 297 300 299 303 302 304 304 308 309 312 312 311 313 315 316 317 318 316 314 311 310 309 306 302 300 299 297 295 294 294 294 293 291 292 291 291 291 291
282 283 285 287 291 293 296 296 298 302 304 304 306 308 308 309 305 305 308 310 313 314 315 315 313 311 308 305 303 302 300 298 295 295 295 296 295 293 293 293 293 293 292
278 279 281 283 285 287 290 293 296 299 301 303 304 304 305 307 306 305 305 304 307 309 309 309 309 309 308 305 304 303 301 300 298 295 294 294 295 296 295 294 294 294 294
274 275 277 279 280 283 285 288 292 294 296 297 299 299 301 302 304 305 303 301 302 302 304 304 303 303 304 304 303 301 300 301 299 297 296 295 294 294 295 296 295 295 294
271 273 274 275 277 281 282 285 287 289 292 294 295 296 297 298 299 301 300 299 299 300 300 300 300 300 300 301 300 298 297 297 298 298 296 294 294 295 296 296 297 298 297
271 273 273 274 276 279 280 282 284 286 289 290 292 293 293 294 295 296 296 296 296 297 297 296 297 297 296 296 297 296 295 296 295 295 295 294 293 295 296 295 295 297 298
271 271 272 275 277 278 278 280 282 284 285 287 289 291 291 292 292 292 294 294 293 294 294 295 295 295 296 295 293 293 293 293 293 294 295 294 295 296 296 296 296 296 297
272 271 273 273 274 276 277 278 279 280 283 284 286 288 289 290 289 290 292 292 290 290 290 292 294 295 294 293 292 290 290 291 291 291 292 293 294 294 295 295 295 296 297
272 272 270 272 274 275 276 276 277 279 281 282 283 284 286 287 288 288 289 290 288 287 288 289 291 292 291 291 290 290 289 289 289 289 289 290 291 292 293 294 295 296 297
271 271 271 272 273 275 276 277 277 279 280 281 282 283 284 285 286 286 287 287 286 285 286 288 290 291 290 290 289 287 286 287 287 287 287 287 288 290 291 292 294 295 296
270 270 271 272 272 272 274 276 278 279 279 279 280 281 282 283 284 284 285 286 285 285 285 287 288 290 290 289 288 286 285 285 285 286 286 287 288 290 292 292 293 294 296
268 270 271 272 273 273 273 275 277 279 279 277 278 279 280 281 283 283 284 285 285 284 284 285 285 287 287 288 286 284 284 285 284 284 285 287 287 289 290 291 293 295 295
268 269 269 271 271 273 274 275 277 278 279 279 279 279 279 280 281 282 283 283 284 284 284 284 284 284 285 285 283 283 282 281 282 283 283 285 287 288 290 291 293 294 294
266 267 270 272 273 274 275 276 276 277 278 278 279 280 280 279 281 281 282 282 282 282 282 284 284 283 284 284 282 282 281 281 282 283 284 285 287 288 290 292 293 293 293
266 269 271 272 273 274 276 276 275 275 276 277 278 279 280 281 281 281 281 282 280 282 283 282 282 282 283 283 283 283 283 284 284 284 283 284 285 287 288 290 292 293 292
268 269 271 271 272 273 275 275 275 276 276 276 278 279 279 280 281 281 282 282 281 281 281 280 281 282 283 284 283 283 284 285 284 283 283 283 284 285 287 288 290 290 291
268 269 270 271 271 273 274 275 275 277 277 276 277 278 279 279 280 281 282 281 280 280 280 279 279 280 282 283 283 283 283 282 282 283 283 283 284 285 286 288 289 289 289
270 270 271 273 273 273 274 275 276 277 276 276 278 278 278 278 279 282 282 282 281 281 280 279 279 280 281 282 283 282 282 282 281 282 282 283 284 285 285 286 288 288 289
271 271 272 274 274 274 275 276 276 276 277 278 278 279 279 280 280 282 281 280 281 281 279 279 279 280 281 282 283 284 283 282 281 281 283 284 285 285 286 287 287 288 288
Height
5912 5910 5908 5906 5904 5902 5900 5898 5896 5894 5892 5889 5887 5885 5883 5880 5878 5876 5874 5872 5870 5868 5866 5865 5863 5862 5860 5858 5856 5854 5853 5851 5850 5848 5846 5844 5843 5842 5841 5840 5839 5837 5836
5910 5908 5907 5905 5903 5901 5899 5897 5894 5892 5890 5888 5886 5883 5881 5878 5876 5873 5871 5869 5867 5865 5863 5861 5859 5857 5856 5854 5852 5850 5849 5848 5846 5844 5842 5841 5839 5838 5837 5836 5835 5833 5831
5908 5907 5905 5903 5901 5899 5897 5895 5892 5890 5888 5886 5883 5881 5878 5876 5873 5870 5868 5865 5863 5861 5859 5857 5855 5853 5851 5850 5848 5846 5845 5843 5842 5841 5839 5837 5836 5834 5833 5831 5830 5829 5827
5905 5903 5902 5900 5898 5897 5894 5892 5890 5888 5886 5883 5881 5879 5876 5873 5870 5867 5864 5862 5859 5857 5855 5852 5851 5849 5847 5845 5844 5842 5841 5839 5838 5836 5835 5833 5832 5830 5828 5827 5826 5824 5822
5901 5900 5898 5896 5895 5894 5892 5890 5887 5885 5883 5880 5878 5876 5873 5870 5867 5864 5861 5858 5855 5853 5850 5848 5846 5844 5842 5841 5840 5838 5836 5835 5833 5832 5830 5829 5827 5826 5824 5823 5821 5819 5818
5897 5896 5895 5893 5892 5890 5888 5886 5884 5882 5879 5877 5875 5872 5870 5867 5864 5860 5857 5854 5851 5848 5846 5843 5841 5840 5838 5837 5835 5833 5832 5831 5829 5827 5826 5824 5823 5821 5820 5818 5816 5815 5813
5893 5892 5890 5889 5887 5885 5883 5882 5880 5878 5876 5873 5871 5869 5866 5863 5860 5857 5854 5851 5847 5845 5842 5840 5838 5836 5834 5832 5831 5829 5828 5826 5825 5823 5821 5820 5818 5816 5815 5813 5811 5810 5808
5888 5887 5885 5884 5882 5880 5879 5877 5875 5873 5871 5869 5866 5864 5861 5858 5856 5853 5850 5847 5844 5841 5838 5836 5834 5832 5831 5829 5827 5825 5823 5822 5820 5818 5817 5815 5813 5811 5809 5808 5806 5804 5803
5882 5881 5879 5878 5877 5875 5873 5871 5869 5868 5866 5864 5861 5859 5856 5854 5851 5848 5845 5843 5840 5837 5835 5832 5830 5828 5827 5825 5823 5821 5819 5817 5815 5813 5811 5809 5807 5805 5804 5802 5800 5798 5797
5874 5874 5873 5871 5870 5869 5868 5866 5864 5862 5860 5858 5856 5854 5851 5848 5845 5843 5840 5838 5836 5833 5830 5828 5826 5824 5822 5820 5818 5816 5814 5812 5810 5808 5806 5804 5802 5800 5798 5796 5794 5792 5790
5866 5866 5865 5864 5863 5862 5860 5859 5857 5856 5854 5852 5850 5848 5845 5842 5840 5837 5835 5832 5830 5828 5825 5823 5821 5819 5817 5815 5813 5811 5809 5807 5805 5802 5800 5798 5796 5794 5792 5790 5788 5785 5783
5857 5856 5856 5855 5855 5854 5853 5851 5850 5848 5847 5845 5843 5841 5838 5836 5833 5831 5829 5826 5824 5822 5819 5817 5815 5813 5811 5809 5807 5805 5803 5801 5799 5797 5795 5792 5790 5788 5785 5783 5781 5778 5776
5848 5848 5847 5846 5846 5845 5844 5843 5842 5841 5839 5837 5835 5833 5831 5829 5827 5825 5822 5820 5817 5815 5813 5811 5809 5807 5805 5803 5801 5799 5797 5795 5792 5790 5788 5786 5783 5781 5779 5776 5774 5771 5769
5838 5838 5838 5837 5837 5836 5835 5834 5833 5832 5831 5829 5827 5825 5823 5821 5819 5817 5815 5813 5810 5808 5806 5804 5802 5800 5798 5796 5794 5792 5790 5788 5786 5783 5781 5779 5776 5774 5772 5769 5767 5764 5762
5829 5828 5828 5827 5827 5826 5825 5824 5823 5823 5821 5820 5819 5817 5815 5813 5811 5809 5807 5805 5803 5800 5798 5796 5794 5792 5790 5788 5786 5784 5782 5780 5778 5776 5774 5771 5769 5767 5765 5762 5759 5757 5754
5819 5818 5818 5817 5817 5817 5816 5815 5814 5813 5812 5810 5809 5808 5806 5805 5803 5801 5799 5797 5795 5792 5790 5789 5787 5784 5782 5780 5778 5776 5774 5772 5770 5768 5766 5764 5762 5759 5757 5754 5752 5749 5747
5809 5808 5808 5808 5807 5807 5806 5805 5804 5803 5801 5800 5799 5797 5796 5795 5793 5791 5790 5788 5786 5784 5782 5780 5778 5776 5773 5771 5769 5767 5765 5763 5761 5759 5757 5755 5754 5751 5749 5746 5744 5741 5739
5799 5799 5798 5798 5797 5796 5796 5795 5794 5793 5792 5791 5789 5787 5786 5785 5783 5782 5780 5778 5776 5774 5773 5771 5769 5767 5765 5762 5760 5758 5756 5754 5752 5751 5749 5747 5745 5743 5741 5738 5736 5733 5730
5788 5788 5788 5788 5787 5786 5785 5785 5783 5782 5781 5780 5779 5778 5776 5775 5773 5771 5770 5768 5766 5764 5763 5761 5759 5757 5755 5753 5751 5749 5747 5745 5743 5741 5740 5738 5736 5734 5732 5729 5727 5724 5722
5777 5777 5777 5776 5776 5776 5775 5774 5773 5771 5770 5770 5769 5768 5766 5764 5763 5762 5760 5758 5756 5755 5753 5751 5749 5747 5745 5743 5741 5739 5737 5735 5733 5732 5730 5728 5726 5724 5722 5720 5718 5715 5713
5765 5766 5765 5765 5765 5765 5764 5763 5762 5761 5760 5759 5758 5757 5755 5754 5753 5751 5750 5748 5747 5745 5743 5741 5739 5736 5735 5733 5731 5730 5728 5726 5724 5722 5720 5719 5717 5715 5713 5711 5709 5706 5704
5754 5755 5755 5754 5754 5753 5753 5752 5751 5750 5749 5748 5747 5746 5745 5743 5742 5740 5739 5737 5735 5734 5732 5731 5729 5727 5725 5723 5722 5720 5718 5716 5714 5713 5711 5709 5707 5705 5703 5701 5699 5696 5694
5743 5743 5743 5743 5743 5743 5742 5740 5739 5739 5738 5737 5736 5735 5734 5733 5731 5729 5728 5726 5724 5723 5721 5720 5718 5717 5715 5713 5711 5710 5708 5707 5705 5702 5701 5699 5697 5695 5693 5691 5689 5686 5684
5732 5732 5733 5733 5733 5732 5731 5730 5729 5728 5727 5726 5725 5724 5723 5722 5720 5719 5717 5715 5713 5712 5710 5709 5707 5706 5704 5702 5701 5699 5697 5696 5694 5692 5690 5688 5686 5684 5682 5680 5678 5676 5673
5722 5722 5723 5722 5722 5721 5720 5720 5719 5718 5717 5716 5715 5714 5712 5711 5710 5708 5706 5704 5703 5701 5699 5698 5697 5695 5694 5692 5690 5688 5687 5685 5683 5681 5679 5678 5676 5674 5672 5670 5667 5665 5662
5713 5713 5713 5712 5712 5711 5710 5710 5709 5708 5707 5705 5704 5703 5702 5701 5699 5697 5695 5694 5692 5690 5689 5687 5686 5685 5683 5681 5679 5677 5676 5674 5672 5670 5668 5666 5665 5663 5661 5659 5656 5654 5651